Timeline UpdatesTrip UpdatesNews PostsPvt PostsTravel TipsAdmin PostsConv PostsFollowed PostsChat RequestsBlog PostsPNR Posts

Disclaimer
Search
 
 
Fri Aug 1, 2014 03:09:41 ISTHomeTrainsΣChainsAtlasPNRForumGalleryNewsFAQTripsMembersLoginFeedback
No Recent News for this Train
Other Trains in the News **new
Latest...
2S avbl b/w mumbai & surat .
Tue Feb 04, 2014 (12:55AM)
⇐ Return Journey: Train# 19024

19023/Mumbai Firozpur Janta Express

Oct 03 2013 (4:40PM)
Change Departure Station:
Change Arrival Station:
Post a Train Travel TipPost a Train Travel Tip **new
Post a Comment/Question/Picture/VideoPost a Comment/Question/Picture/Video
Inaugural Run
Mon Oct 01, 1956
Pantry/Catering
✕ NO Pantry Car
✓ Catering Avbl
Catering from local vendors
RSA - Rake Sharing
No RSA. Independent Rake.
Rake/Coach Composition
LOCO, HCPV, SLR, GS, S-8, S-7, S-6, S-5, S-4, S-3, S-2, S-1, GS, GS(MST), GS, SLR Author: Manish Kr Singh Entry: 640399
Loco
BCT NDLS = GZB WAP#5, NDLS-FZR TKD WDP-4/4B
News    PNR    Forum    Time-Table    Availability    Fare Chart    Map    Arr/Dep History    Trips    Gallery    ΣChains    X/O    Timeline    
Travel Time: 29h 20m    69 halts    Distance: 1386 km    Avg Speed: 47 km/hr
Type: Mail/Express
Zone: WR/Western
Departs @ 07:25 (Avg 1m late)
Platform# 4
SMTWTFS
Mumbai Central/BCT 
Arrives @ 12:45 +1 night (Avg 12m late)
Platform# 1
SMTWTFS
New Delhi/NDLS 

69 halts. 225 intermediate Stations between Mumbai Central and New Delhi

Show ALL intermediate Stations  Show Old Time-Table

#CodeStation NameX/OArrivesAvgDepartsAvgHaltPFDay#KmSpeedElevZoneAddress
1BCT»Mumbai Central (9)»  -07:25+1410.0403mWRMumbai 400008, Maharashtra
2DDRMumbai Dadar Western (6)  07:34+507:37+53m315.9536mWRMumbai, Maharashtra
3BVIMumbai Borivali (8)  08:04+608:07+63m4129.75119mWRMumbai - 400092, Maharashtra
4PLGPalghar (3)O  09:14+1109:16+132m1186.64219mWRPalghar, Maharashtra
5BORBoisar (3)X  09:32+809:34+102m2197.93317mWRBoisar Tel.no-02525-266626, Maharashtra
6VGNVangaon (3)XO  09:51+309:52+51m11107.35311mWRThane, Maharashtra
7DRDDahanu Road (5)X  10:06+310:08+42m11119.67612mWRDahanu, Maharashtra
8UBRUmbargam Road (3)XO  10:24+410:26+52m11139.94030mWRUmbergaon, Gujarat
9SJNSanjan (3)X  10:34+410:36+52m11145.36922mWRSanjan, Gujarat
10BLDBhilad (3)  10:46+510:48+62m21156.95633mWRBhilad, Gujarat
11VAPIVapi (3)X  11:00+611:02+82m11168.14827mWRVapi, Gujarat
12UVDUdvada (3)X  11:14+711:16+82m--1177.76018mWRUdvada, Gujarat
13PADPardi (3)X  11:22+711:24+72m--1183.73619mWRValsad, Gujarat
14BLValsad (3)X  11:42+111:47+55m21194.49015mWRValsad, Gujarat
15BIMBilimora Junction (4)X  11:59+1012:01+102m11212.33711mWRBilimora, Gujarat
16AMLAmalsad (3)  12:10+812:12+82m11217.99412mWRAmalsad, Gujarat
17NVSNavsari (3)  12:22+1412:27+155m11233.54614mWRNavsari, Gujarat
18MRLMaroli (3)X  12:38+1812:40+172m11241.92715mWRMaroli, Gujarat
19STSurat (4)X  13:27+713:37+810m11263.17919mWRSurat 395001, Gujarat
20KIMKim (2)X  13:55+1713:57+172m11286.75818mWRNH 8, Gujarat
21KSBKosamba Junction (3)  14:05+1814:07+172m11294.57130mWRKosamba, Gujarat
22PAOPanoli (3)  14:14+1814:16+182m11302.77729mWRPanoli, Gujarat
23AKVAnkleshwar Junction (4)  14:24+1914:26+192m11313.03719mWRAnkleshwar, Gujarat
24BHBharuch Junction (5)  14:41+1914:46+225m31322.48019mWRBharuch, Gujarat
25NIUNabipur (3)14:55+3214:57+312m--1334.48024mWRNabipur, Gujarat
26PLJPalej (4)X  15:07+3215:09+312m--1347.88329mWRPalej, Gujarat
27MYGMiyagam Karjan (2)  15:20+3115:22+302m21363.05429mWRKarjan, Gujarat
28BRCVadodara Junction (7)X  15:55+3116:05+3210m61392.97336mWRVadodara 390005, Gujarat
29SMLASamlaya Junction (3)  16:27+1:0216:29+1:022m--1419.57567mWRVadodara, Gujarat
30DRLDerol  16:48+1:0916:50+1:092m--1443.24381mWRKalol, Gujarat
31GDAGodhra Junction (3)  17:23+2417:28+245m21466.864122mWRGodhra, Gujarat
32SATSant Road (2)  17:47+3717:49+362m--1487.171169mWROrwara, Gujarat
33PPDPiplod Junction  17:59+3918:01+392m--1499.079209mWRPiplod, Gujarat
34LMKLimkheda  18:07+4218:09+412m--1506.971205mWRLimkheda, Gujarat
35DHDDahod (3)  18:37+3818:42+385m--1539.999313mWRDahod, Gujarat
36MGNMeghnagar (3)X  19:02+4519:04+462m--1573.060317mWRJhabua, Madhya Pradesh
37THDRThandla Road (2)X  19:12+4519:14+452m--1581.072317mWRJhabua, Madhya Pradesh
38BMIBamnia (2)X  19:37+4819:39+482m--1608.548392mWRBamnia, Madhya Pradesh
39RTMRatlam Junction (7)X  20:35+3320:55+2820m51653.375495mWRRatlam, Madhya Pradesh
40KUHKhachrod (2)X  21:17+3221:19+312m--1680.920497mWRUjjain, Madhya Pradesh
41NADNagda Junction (4)X  22:00+822:05+105m--1694.768468mWRNagda, Madhya Pradesh
42MEPMahidpur Road  22:20+1822:22+182m--1711.890493mWCRGogapur, Madhya Pradesh
43VMAVikramgarh Alot (2)X  22:38+1722:40+172m21735.782443mWCRKota Division, Madhya Pradesh
44CMUChau Mahla (3)  22:56+2022:58+212m21757.566426mWCRJhalawar, Rajasthan
45SVASuwasra (2)  23:12+2023:14+202m--1772.958450mWCRSuwasra, Madhya Pradesh
46SGZShamgarh (3)  23:28+1923:30+202m--1786.369463mWCRMandsaur, Madhya Pradesh
47BWMBhawani Mandi (3)  23:59+1500:01+182m--1819.871384mWCRBhawani Mandi, Madhya Pradesh
48JHWJhalawar Road (3)X  00:15+1600:17+172m--2836.353361mWCRJhalawar City, Rajasthan
49RMARamganj Mandi Junction (3)X  00:31+1200:33+152m--2848.682358mWCRRamganj Mandi, Rajasthan
50KOTAKota Junction (5)X  01:25+2601:35+2810m12919.971256mWCRKota, Rajasthan
51LKELakheri (3)X  02:26+2502:28+252m--2980.555228mWCRBundi, Rajasthan
52IDGIndargarh Sumerganj Mandi (2)X  02:40+2402:42+262m--2991.566247mWCRIndargarh, Rajasthan
53SWMSawai Madhopur Junction (4)X  03:15+2503:20+245m--21027.772266mWCRSawai Madhopur, Rajasthan
54MLZMalarna  03:45+2403:47+262m--21057.944236mWCRSawai Madhopur, Rajasthan
55NNWNarayanpur Tatwara (2)XO  04:10+1904:12+562m--21074.712256mWCRSawai Madhopur, Rajasthan
56GGCGangapur City (3)O  05:40+905:45+235m121091.660270mWCRGangapur, Rajasthan
57SMBJShri Mahabirji (3)  06:19+1806:20+211m--21125.747240mWCRKarauli, Rajasthan
58HANHindaun City (2)  06:33+1906:35+252m--21135.979230mWCRKarauli, Rajasthan
59FSPFateh Singhpura  06:45+2806:47+272m--21149.166223mWCRState Highway 1, Rajasthan
60BXNBayana Junction (3)  07:05+2807:10+315m--21168.850198mWCRBayana, Rajasthan
61BTEBharatpur Junction (5)X  08:00+1608:05+305m--21210.822174mWCRBharatpur, Rajasthan
62MTJMathura Junction (10)  09:35+009:45+310m421244.385179mNCRMathura, Uttar Pradesh
63CHJChata (4)X  10:07+810:09+92m--21275.556185mNCRChhata, Uttar Pradesh
64KSVKosi Kalan (3)X  10:20+810:22+92m121285.855189mNCRKosi Kalan, Uttar Pradesh
65PWLPalwal (8)X  11:08-211:10+42m--21328.271200mNRPalwal, Haryana
66BVHBallabgarh (5)  11:28+911:30+92m--21349.444203mNRFaridabad, Haryana
67FDBFaridabad (4)X  11:41+1011:43+102m221357.556206mNRold Faridabad, Haryana
68TKDTuglakabad (4)  11:55+1311:57+132m--21368.640213mNRNear Tughlakabad Metro Station, Delhi NCT
69OKAOkhla (4)X  12:06+1412:08+142m--21374.622221mNRIshwar Nagar Mathura Road, Delhi NCT
70NZMDelhi Hazrat Nizamuddin (7)  12:18+1112:20+112m321378.218209mNRNizamuddin East/Sarai KaleKhan Bus Terminal, Delhi NCT
71NDLS•New Delhi (16)•X  12:45+1213:15+1030m121385.614215mNRNew Delhi, Delhi NCT
72DKZDelhi KishanGanj (2)  13:32+1713:34+172m--21389.528220mNRSarai Rohilla, Delhi NCT
73SSBShakur Basti  13:49+1813:51+192m--21396.550216mNRPitampura, Delhi NCT
74NNONangloiO  14:00+2214:02+242m--21403.962219mNRJJ Colony No 1, Delhi NCT
75BGZBahadurgarh  14:14+2414:16+252m--21416.440220mNRBahadurgarh, Haryana
76SPZSampla  14:43+2414:45+252m--21434.354222mNRSampla, Haryana
77ROKRohtak Junction (3)  15:10+2415:15+275m--21456.772220mNRRohtak, Haryana
78JNAJulana  15:41+2915:43+302m--21488.148226mNRJulana, Haryana
79JINDJind Junction (3)  16:15+2616:20+255m--21513.875222mNR126102., Haryana
80UCAUchana  16:35+2416:37+242m--21532.565225mNRDistrict Jind, Haryana
81NRWNarwana Junction (4)  16:51+2616:53+262m--21547.773235mNRWay to Narwana, Haryana
82TUNTohana (2)  17:14+2617:15+261m--21573.237232mNRTohana, Haryana
83JHLJakhal Junction  17:35+2317:40+225m--21585.478225mNRJakhal, Haryana
84BRZBareta  17:51+2217:53+222m--21599.671223mNRBareta, Punjab
85BLZBudhlada  18:06+2318:08+232m--21615.064223mNRBudhlada, Punjab
86MSZMansaX  18:23+1918:25+192m--21631.137222mNRMansa, Punjab
87KTKLKotli Kalan  18:39-18:41-2m--21639.7101219mNRState Highway 12A, Punjab
88MAURMaur  18:47+1718:49+172m--21649.835220mNRMaur Mandi, Punjab
89BTIBathinda Junction (6)  19:50+520:00+610m121685.367208mNRBathinda, Punjab
90GNAGoneana Bhai Jagta (3)  20:11+1520:13+162m121697.657206mNRGoniana, Punjab
91GJUTGangsar Jaitu (3)  20:28+1820:30+192m121711.849207mNRJaitu, Punjab
92KKPKot Kapura Junction (3)  20:50+1320:52+132m121728.1590mNRKotkapura, Punjab
93FDKFaridkot (3)  21:05+1921:07+232m121740.827202mNRFaridkot, Punjab
94FZRFirozpur Cantt. Junction (5)  22:20+8-121773.1-200mNRFirozpur Cantt 152001, Punjab
Scroll to Top
Scroll to Bottom